Location: Unspecified
(0.0000°N, 0.0000°E)
Time: 23:48:41

Vanguard 3 - Pass Details

Date: 11 December 2017
Orbit: 507 x 3265 km, 33.4° (Epoch: 24 March)

Event Time Altitude Azimuth Distance (km) Brightness Sun altitude
Rises 21:34:50 0° 295° (WNW) 4,477 11.2 -49.2°
Reaches altitude 10° 21:37:21 10° 291° (WNW) 3,792 10.7 -49.7°
Enters shadow 21:43:54 47° 267° (W) 2,556 9.6 -51.0°
Exits shadow 21:57:15 31° 144° (SE) 4,111 10.5 -53.5°
Drops below altitude 10° 22:05:38 10° 135° (SE) 6,027 11.5 -55.1°
Sets 22:10:53 0° 131° (SE) 7,193 12.0 -56.0°
